Regional Weather Roundup
Issued by NWS Grand Forks, ND

Home | Current Version | Previous Version | Text Only | Print | Product List | Glossary On
Versions: 1 2 3 4 5 6 7 8 9 10 11 12 13 14 15 16 17 18 19 20 21 22 23 24 25 26 27 28 29 30 31 32 33 34 35 36 37 38 39 40 41 42 43 44 45 46 47 48 49 50
000
ASUS43 KFGF 230131
RWRFGF
PRAIRIE TO PINES  WEATHER ROUNDUP
NATIONAL WEATHER SERVICE EASTERN NORTH DAKOTA/GRAND FORKS ND
800 PM CDT MON MAY 22 2017

 **SATELLITE DATA USED TO AUGMENT SKY COVER AT AUTOMATED STATIONS**
 *****  WEATHER ACROSS EASTERN NORTH DAKOTA  *****

CITY           SKY/WX    TMP DP  RH WIND       PRES   REMARKS
GRAND FORKS    CLOUDY    52  48  86 N14       29.89R
GRAND FRKS AFB CLOUDY    50  46  87 N12G18    29.90R
DEVILS LAKE    CLOUDY    50  43  77 N15       29.97R
FARGO          LGT RAIN  50  47  89 N10       29.88R
WAHPETON ARPT  MOCLDY    50  41  71 NW13      29.89R
$$

 ***** WEATHER ACROSS CENTRAL AND WESTERN NORTH DAKOTA  *****

CITY           SKY/WX    TMP DP  RH WIND       PRES   REMARKS
BISMARCK       CLOUDY    62  38  40 NW10      29.98F
MINOT          CLOUDY    61  31  32 N24       30.01R
JAMESTOWN      LGT RAIN  50  45  83 N12       29.94R
MINOT AFB      CLOUDY    60  33  35 NE18G28   30.01R
GARRISON         N/A     59  34  39 NE13      29.99R
WILLISTON      CLOUDY    66  34  30 N12       30.07R
DICKINSON      CLOUDY    58  33  39 N12       30.04R
HETTINGER      FAIR      58  35  42 N16       30.06F
$$

 *****  OTHER AIRPORT OBSERVATIONS IN OUR AREA  *****

CITY           SKY/WX    TMP DP  RH WIND       PRES   REMARKS
WALHALLA       NOT AVBL
GRAFTON AIRPOR CLOUDY    50  48  93 N13G21    29.93R
VALLEY CITY AR NOT AVBL
CANDO          NOT AVBL
CAVALIER APRT  CLOUDY    50  46  87 N13G21    29.93R
GWINNER        CLOUDY    48  46  93 MISG      29.92R
SHEYENNE NWR     N/A     50  45  82 N5        29.95S
ROLLA          CLOUDY    52  39  62 N23       30.02R
 ***** THE ABOVE OBSERVATIONS ARE NON NWS ARE NOT QUALITY
       CONTROLLED AND MAY MIS-REPORT RAIN FOR SNOW...
$$

  *****  WEATHER ACROSS NORTHERN MINNESOTA  *****

CITY           SKY/WX    TMP DP  RH WIND       PRES   REMARKS
FLAG ISLAND    CLOUDY    48  43  81 N16       29.86R
WARROAD        DRIZZLE   48  45  87 N9        29.88R
ROSEAU         LGT RAIN  48  45  87 N9        29.88R
HALLOCK        CLOUDY    50  46  87 N10       29.91R
THF RVR FALLS  CLOUDY    48  43  81 N8        29.88R
BAUDETTE       LGT RAIN  48  46  93 N9        29.84R
WASKISH        CLOUDY    46  45  93 N3        29.84S
CROOKSTON      CLOUDY    50  46  87 N9        29.88S
STEPHEN NDAWN    N/A     52  46  82 N12         N/A
GREENBUSH NDAW   N/A     50  46  87 VRB12       N/A
$$
  *****  WEATHER ACROSS CENTRAL AND WEST MINNESOTA  *****

CITY           SKY/WX    TMP DP  RH WIND       PRES   REMARKS
FOSSTON        RAIN      46  45  93 NW5       29.87R
BEMIDJI        CLOUDY    46  43  92 NW6       29.85R
PARK RAPIDS    CLOUDY    48  39  71 N9        29.84S
ELBOW LAKE     CLOUDY    51  43  75 NW8       29.87S
WADENA         CLOUDY    48  41  76 NW8       29.85R
DETROIT LAKES  DRIZZLE   46  45  93 N8        29.88R
MOORHEAD       MOCLDY    48  45  87 NW12      29.89S
FERGUS FALLS   CLOUDY    48  43  81 N16       29.87R
MORRIS MN      CLOUDY    54  45  71 NW12      29.87R
STAPLES        CLOUDY    48  41  76 N8        29.84R
$$
  *****  WEATHER ELSEWHERE ACROSS MINNESOTA  *****

CITY           SKY/WX    TMP DP  RH WIND       PRES   REMARKS
DULUTH         MOCLDY    52  44  74 W5        29.80S
INTRNTL FALLS  CLOUDY    49  42  77 NW9       29.82R HAZE
ELY            CLOUDY    48  45  87 CALM      29.80S
CLOQUET        CLOUDY    50  43  76 CALM      29.82R
WHEATON        CLOUDY    54  39  58 NW14G20   29.91R
BRAINERD       CLOUDY    51  40  65 NW13      29.83R
HIBBING        CLOUDY    47  43  86 NW5       29.81S
ALEXANDRIA     CLOUDY    52  42  69 NW10      29.85S
SAINT CLOUD    FAIR      55  42  61 NW10      29.83R
MINNEAPOLIS    MOCLDY    61  40  45 NW12      29.81S
$$

  *****  WEATHER ACROSS SOUTH DAKOTA  *****

CITY           SKY/WX    TMP DP  RH WIND       PRES   REMARKS
SIOUX FALLS    LGT RAIN  52  45  77 N10       29.90R
BROOKINGS      CLOUDY    50  47  89 SW5       29.89S
WATERTOWN      CLOUDY    53  41  63 N12       29.89R
HURON          FAIR      55  48  77 W8        29.92R
SISSETON         N/A     54  42  64 N18       29.89R
ABERDEEN       CLOUDY    54  38  54 N16       29.95R
MITCHELL       FAIR      57  43  59 NW9       29.94R
PIERRE         CLOUDY    59  35  40 N16       29.98R
MOBRIDGE       CLOUDY    58  37  45 N13       29.98R
RAPID CITY     FAIR      50  43  77 NW15      30.10R
$$

  *****  SOME WEATHER IN NEARBY STATES *****

CITY           SKY/WX    TMP DP  RH WIND       PRES   REMARKS
GLASGOW MT     FAIR      65  31  28 N15       30.14S
GREAT FALLS MT CLOUDY    69  37  30 W6        30.19F
CHEYENNE WY    FAIR      45  33  63 NW16G25   30.18R
SCOTTSBLUFF NE FAIR      50  38  63 N17G24    30.13R
OMAHA NE       MOCLDY    64  52  64 SW6       29.88R
DES MOINES IA  CLOUDY    66  53  63 SW13      29.85R
DAVENPORT IA   FAIR      61  54  77 SW10      29.88R
CHICAGO IL     CLOUDY    65  53  65 S18G24    29.90S
EAU CLAIRE WI  FAIR      60  45  57 N3        29.80S
LA CROSSE WI   FAIR      65  51  60 CALM      29.79S
$$

  *****  SOME NATIONAL WEATHER *****

CITY           SKY/WX    TMP DP  RH WIND       PRES   REMARKS
LA GUARDIA NY  MOCLDY    61  60  97 CALM      29.95F
RALEIGH NC     LGT RAIN  73  68  84 E5        29.98R
ATLANTA GA     CLOUDY    71  66  84 SW3       29.96S
NEW ORLEANS LA CLOUDY    75  71  87 SE13      29.89F
OKLAHOMA CITY  TSTM      62  60  93 N9        29.97R
ALBUQUERQUE NM FAIR      77  13   9 NW22G31   30.02S
SALT LAKE CITY FAIR      75  35  23 NW3       30.14F
LOS ANGELES CA PTSUNNY   63  58  83 W15       29.91F
BOISE ID       FAIR      80  40  23 NW12      30.09F
SEATTLE WA     FAIR      80  49  33 N14       30.05F
$$

*** WEATHER ACROSS MANITOBA...SASKATCHEWAN AND ONTARIO ***
                ***ONTARIO***

CITY           SKY/WX    TMP DP  RH WIND       PRES   REMARKS
GERALDTON      LGT RAIN  48  48 100 N3        29.75R VSB 1
THUNDER BAY    MOCLDY    54  46  76 NW2       29.77R
SIOUX LOOKOUT  DRIZZLE   46  45  93 N7        29.83R FOG
TORONTO        PTCLDY    57  45  62 S7        29.94R
BIG TROUT LK   PTCLDY    57  32  38 NE14G22   30.01R
PICKLE LAKE    LGT RAIN  45  43  93 NE13G18   29.91R
DRYDEN         LGT RAIN  46  46 100 NE13G20   29.83  FOG
KENORA         LGT RAIN  46  45  93 N10G17    29.87
$$
                *** MANITOBA***

CITY           SKY/WX    TMP DP  RH WIND       PRES   REMARKS
BRANDON        PTSUNNY   57  36  44 NE15G24   30.04R
DAUPHIN        SUNNY     63  34  34 NE16G24   30.06R
ISLAND LAKE    NOT AVBL
PILOT MOUND      N/A     52  39  62 N20G29      N/A
THE PAS        MOSUNNY   68  30  24 NE8       30.10R
THOMPSON       MOSUNNY   61  34  36 NE12      30.16R
WINNIPEG       PTSUNNY   52  45  76 NE18G26   29.96R
LYNN LAKE      SUNNY     66  27  22 E6        30.13R
CHURCHILL      FOG       30  30 100 E7        30.27S VSB 1/2 WCI  23
GILLAM         MOSUNNY   52  34  50 NE7       30.19S
$$
                ***SASKATCHEWAN***

CITY           SKY/WX    TMP DP  RH WIND       PRES   REMARKS
ESTEVAN        PTSUNNY   64  30  27 NE18      30.06R
KINDERSLEY     MOSUNNY   70  27  19 S3        30.15S
LLOYDMINSTER   CLOUDY    68  32  26 SW8       30.11F
PRINCE ALBERT  PTSUNNY   72  32  23 NE7       30.11R
REGINA         MOSUNNY   66  28  24 N16G22    30.10S
YORKTON        SUNNY     64  32  29 NE13      30.08R
N. BATTLEFORD  SUNNY     70  32  24 VRB5      30.15S
LA RONGE       PTSUNNY   70  25  18 VRB3      30.11F
SASKATOON      PTSUNNY   70  32  24 N5        30.15R
SWIFT CURRENT  SUNNY     64  32  29 NE9       30.17S
$$
NOTE: THESE ARE AUTOMATED STATIONS WITH LIMITED QUALITY CONTROL
      "FAIR" INDICATES FEW OR NO CLOUDS BELOW 12,000 FEET WITH NO
      SIGNIFICANT WEATHER AND/OR OBSTRUCTIONS TO VISIBILITY.
      SKY/WX - SKY CONDITION AND SIGNIFICANT WEATHER.
      TMP - AIR TEMPERATURE.    DP   - DEWPOINT TEMPERATURE.
      RH  - RELATIVE HUMIDITY.  PRES - PRESSURE.
      HX  - HEAT INDEX.         WCI  - WIND CHILL INDEX.
$




USA.gov is the U.S. government's official web portal to all federal, state and local government web resources and services.